Dalhart, TX

1:34 PM CST on February 21, 2017 (GMT -0600)
Dalhart Municipal

Weather History for KDHT - February, 2013

Change the Weather History Date:

Sunday, February 24, 2013

  Actual Average Record
Temperature  
Mean Temperature 39 °F 40 °F  
Max Temperature 47 °F 55 °F 77 °F (1986)
Min Temperature 30 °F 24 °F 2 °F (1965)
Degree Days  
Heating Degree Days 26 25  
Month to date heating degree days 639 637  
Since 1 July heating degree days 3205 3519  
Cooling Degree Days 0 0  
Month to date cooling degree days 0 0  
Year to date cooling degree days 0 0  
Moisture  
Dew Point 27 °F    
Average Humidity 70    
Maximum Humidity 92    
Minimum Humidity 48    
Precipitation  
Precipitation T in 0.01 in 0.09 in (1951)
Month to date precipitation 0.58 0.32  
Year to date precipitation 0.75 0.84  
Snow  
Snow 0.30 in 0.10 in 1.90 in (2015)
Month to date snowfall 12.8 2.6  
Since 1 July snowfall 17.3 13.1  
Snow Depth 0.00 in    
Sea Level Pressure  
Sea Level Pressure 29.74 in    
Wind  
Wind Speed 19 mph (North)    
Max Wind Speed 43 mph    
Max Gust Speed 52 mph    
Visibility 6 miles    
Events Fog , Snow    
T = Trace of Precipitation, MM = Missing Value Source: NWS Daily Summary

Daily Weather History Graph

Daily Weather History Graph

Search for Another Location

Airport or City:

Trip Planner

Search our weather history database for the weather conditions in past years. The results will help you decide how hot, cold, wet, or windy it might be!

Date:

Astronomy

Feb. 24, 2013 Rise Set
Actual Time 7:26 AM CST 6:40 PM CST
Civil Twilight 7:00 AM CST 7:06 PM CST
Nautical Twilight 6:30 AM CST 7:36 PM CST
Astronomical Twilight 6:01 AM CST 8:06 PM CST
Moon 5:54 PM CST (2/24) 6:24 AM CST (2/24)
Length of Visible Light 12h 06m
Length of Day
11h 14m
Waxing Gibbous, 99% of the Moon is Illuminated
Feb 24
Waxing Gibbous
Feb 25
Full
Mar 4
Last Quarter
Mar 11
New
Mar 19
First Quarter

Hourly Weather History & Observations

Time (CST) Temp. Windchill Dew Point Humidity Pressure Visibility Wind Dir Wind Speed Gust Speed Precip Events Conditions
12:53 AM 33.1 °F 26.9 °F 23.0 °F 66% 29.66 in 10.0 mi South 6.9 mph - N/A   Clear
1:53 AM 33.1 °F 25.5 °F 21.9 °F 64% 29.65 in 10.0 mi South 9.2 mph - N/A   Clear
2:53 AM 33.1 °F 24.9 °F 21.9 °F 64% 29.62 in 10.0 mi SSW 10.4 mph - N/A   Clear
3:53 AM 30.9 °F 23.5 °F 21.9 °F 69% 29.60 in 10.0 mi SSW 8.1 mph - N/A   Clear
4:53 AM 30.9 °F 23.5 °F 21.0 °F 67% 29.60 in 10.0 mi WSW 8.1 mph - N/A   Clear
5:53 AM 32.0 °F 27.5 °F 23.0 °F 69% 29.60 in 10.0 mi West 4.6 mph - N/A   Clear
6:53 AM 33.1 °F 26.1 °F 21.9 °F 64% 29.63 in 10.0 mi West 8.1 mph - N/A   Clear
7:53 AM 32.0 °F 24.2 °F 21.0 °F 64% 29.64 in 10.0 mi WNW 9.2 mph - N/A   Clear
8:53 AM 37.0 °F 31.0 °F 23.0 °F 57% 29.66 in 10.0 mi NW 8.1 mph - N/A   Clear
9:53 AM 39.9 °F 35.1 °F 21.9 °F 49% 29.68 in 10.0 mi North 6.9 mph - N/A   Clear
10:53 AM 44.1 °F 38.6 °F 27.0 °F 51% 29.67 in 10.0 mi North 10.4 mph - N/A   Clear
11:53 AM 43.0 °F 36.8 °F 30.0 °F 60% 29.68 in 10.0 mi North 11.5 mph - N/A   Clear
12:53 PM 45.0 °F 38.2 °F 32.0 °F 60% 29.66 in 10.0 mi NNE 15.0 mph - N/A   Clear
1:53 PM 46.0 °F 39.6 °F 32.0 °F 58% 29.64 in 10.0 mi NNE 15.0 mph - N/A   Partly Cloudy
2:53 PM 45.0 °F 37.4 °F 34.0 °F 65% 29.66 in 9.0 mi NE 18.4 mph - N/A   Mostly Cloudy
3:53 PM 44.1 °F 35.2 °F 33.1 °F 65% 29.67 in 9.0 mi NE 23.0 mph 31.1 mph N/A   Partly Cloudy
4:53 PM 37.9 °F 27.1 °F 28.9 °F 70% 29.74 in 9.0 mi NNE 23.0 mph 34.5 mph N/A   Mostly Cloudy
5:50 PM 35.6 °F 23.2 °F 28.4 °F 75% 29.76 in 1.8 mi NNE 26.5 mph 34.5 mph 0.00 in Snow Light Snow
5:53 PM 36.0 °F 23.7 °F 28.9 °F 76% 29.78 in 1.5 mi North 26.5 mph 34.5 mph 0.00 in Snow Light Snow
6:10 PM 35.6 °F 24.2 °F 30.2 °F 81% 29.78 in 0.8 mi NNE 21.9 mph 31.1 mph 0.00 in Snow Light Snow
6:17 PM 35.6 °F 23.0 °F 30.2 °F 81% 29.79 in 1.0 mi NNE 27.6 mph 33.4 mph 0.00 in Snow Light Snow
6:28 PM 35.6 °F 23.0 °F 28.4 °F 75% 29.79 in 2.0 mi NNE 27.6 mph 33.4 mph 0.00 in Snow Light Snow
6:43 PM 33.8 °F 21.0 °F 28.4 °F 81% 29.79 in 5.0 mi North 25.3 mph 31.1 mph 0.00 in Snow Light Snow
6:53 PM 33.8 °F 20.8 °F 28.4 °F 81% 29.79 in 6.0 mi NNE 26.5 mph 32.2 mph N/A   Haze
7:29 PM 33.8 °F 20.3 °F 28.4 °F 81% 29.81 in 4.0 mi NNE 28.8 mph 38.0 mph 0.00 in Snow Light Snow
7:53 PM 33.1 °F 20.6 °F 28.0 °F 82% 29.86 in 2.0 mi NNE 23.0 mph 35.7 mph 0.00 in Snow Light Snow
7:55 PM 33.8 °F 20.1 °F 28.4 °F 81% 29.83 in 1.5 mi NNE 29.9 mph 36.8 mph 0.00 in Snow Light Snow
8:16 PM 32.0 °F 17.9 °F 26.6 °F 80% 29.84 in 1.0 mi NNE 28.8 mph 39.1 mph 0.00 in Snow Light Snow
8:22 PM 32.0 °F 17.9 °F 26.6 °F 80% 29.84 in 0.8 mi NNE 28.8 mph 35.7 mph 0.00 in Snow Light Snow
8:33 PM 30.2 °F 14.7 °F 26.6 °F 86% 29.83 in 1.0 mi North 32.2 mph 38.0 mph 0.00 in Snow Light Snow
8:43 PM 30.2 °F 13.9 °F 28.4 °F 93% 29.79 in 0.8 mi North 36.8 mph 42.6 mph 0.00 in Snow Light Snow
8:53 PM 30.9 °F 15.9 °F 28.0 °F 89% 29.82 in 0.2 mi NNE 31.1 mph 43.7 mph 0.00 in Fog Light Freezing Fog
9:03 PM 30.2 °F 13.9 °F 28.4 °F 93% 29.79 in 0.5 mi North 36.8 mph 44.9 mph N/A Fog Light Freezing Fog
9:28 PM 30.2 °F 14.5 °F 28.4 °F 93% 29.80 in 1.0 mi North 33.4 mph 47.2 mph 0.00 in Snow Light Snow
9:46 PM 30.2 °F 14.5 °F 28.4 °F 93% 29.81 in 1.2 mi North 33.4 mph 42.6 mph 0.00 in Snow Light Snow
9:53 PM 30.9 °F 15.7 °F 28.0 °F 89% 29.82 in 1.8 mi North 32.2 mph 42.6 mph 0.00 in Snow Light Snow
10:00 PM 32.0 °F 17.0 °F 28.4 °F 87% 29.83 in 2.5 mi North 33.4 mph 41.4 mph 0.00 in Snow Light Snow
10:07 PM 30.2 °F 14.5 °F 28.4 °F 93% 29.81 in 3.0 mi NNE 33.4 mph 41.4 mph 0.00 in   Overcast
10:53 PM 30.9 °F 14.3 °F 27.0 °F 85% 29.80 in 7.0 mi North 40.3 mph 47.2 mph 0.00 in   Overcast
11:53 PM 30.9 °F 14.3 °F 25.0 °F 79% 29.80 in 8.0 mi NNE 40.3 mph 51.8 mph N/A   Overcast